TimePDT,TemperatureF,Dew PointF,Humidity,Sea Level PressureIn,VisibilityMPH,Wind Direction,Wind SpeedMPH,Gust SpeedMPH,PrecipitationIn,Events,Conditions,WindDirDegrees,DateUTC
12:53 AM,66.9,55.0,66,29.85,10.0,Calm,Calm,-,N/A,,Clear,0,2012-09-27 07:53:00
1:53 AM,64.9,54.0,68,29.85,10.0,Calm,Calm,-,N/A,,Clear,0,2012-09-27 08:53:00
2:53 AM,64.9,54.0,68,29.84,10.0,Calm,Calm,-,N/A,,Clear,0,2012-09-27 09:53:00
3:53 AM,63.0,54.0,72,29.83,10.0,Calm,Calm,-,N/A,,Clear,0,2012-09-27 10:53:00
4:53 AM,64.0,55.9,75,29.84,10.0,East,3.5,-,N/A,,Clear,100,2012-09-27 11:53:00
5:53 AM,63.0,55.9,78,29.86,10.0,Calm,Calm,-,N/A,,Clear,0,2012-09-27 12:53:00
6:53 AM,63.0,57.0,81,29.88,9.0,East,5.8,-,N/A,,Clear,90,2012-09-27 13:53:00
7:53 AM,66.0,57.0,73,29.89,9.0,Calm,Calm,-,N/A,,Clear,0,2012-09-27 14:53:00
8:53 AM,66.9,57.0,70,29.90,7.0,SSE,3.5,-,N/A,,Clear,150,2012-09-27 15:53:00
9:53 AM,72.0,57.0,59,29.91,9.0,Calm,Calm,-,N/A,,Clear,0,2012-09-27 16:53:00
10:53 AM,77.0,55.9,48,29.89,10.0,Calm,Calm,-,N/A,,Clear,0,2012-09-27 17:53:00
11:53 AM,82.0,55.0,39,29.87,10.0,Calm,Calm,-,N/A,,Clear,0,2012-09-27 18:53:00
12:53 PM,84.0,60.1,44,29.85,10.0,SSE,9.2,-,N/A,,Clear,160,2012-09-27 19:53:00
1:53 PM,84.9,57.9,40,29.83,10.0,ESE,11.5,-,N/A,,Clear,120,2012-09-27 20:53:00
2:53 PM,87.1,55.9,35,29.81,10.0,SSE,10.4,-,N/A,,Clear,160,2012-09-27 21:53:00
3:53 PM,84.0,53.1,34,29.82,10.0,South,10.4,-,N/A,,Clear,180,2012-09-27 22:53:00
4:53 PM,84.0,50.0,31,29.82,10.0,South,8.1,-,N/A,,Clear,170,2012-09-27 23:53:00
5:53 PM,81.0,50.0,34,29.83,10.0,South,5.8,-,N/A,,Clear,190,2012-09-28 00:53:00
6:53 PM,79.0,54.0,42,29.83,10.0,SSW,3.5,-,N/A,,Clear,200,2012-09-28 01:53:00
7:53 PM,75.9,57.9,54,29.85,10.0,Calm,Calm,-,N/A,,Clear,0,2012-09-28 02:53:00
8:53 PM,73.0,59.0,61,29.88,10.0,ESE,4.6,-,N/A,,Clear,120,2012-09-28 03:53:00
9:53 PM,71.1,60.1,68,29.89,10.0,East,3.5,-,N/A,,Clear,90,2012-09-28 04:53:00
10:53 PM,71.1,60.1,68,29.89,10.0,Calm,Calm,-,N/A,,Clear,0,2012-09-28 05:53:00
11:53 PM,69.1,60.1,73,29.89,10.0,East,4.6,-,N/A,,Clear,90,2012-09-28 06:53:00